Location: Arleux
(50.3632°N, 2.8721°E)
Time: 04:31:47
(UTC+00:00)

Meteor 1-11 Rocket - Pass Details

Date: 15 December 2019
Orbit: 831 x 916 km, 81.2° (Epoch: 24 January)

Event Time Altitude Azimuth Distance (km) Brightness Sun altitude
Rises 06:47:09 0° 219° (SW) 3,472 6.8 -8.2°
Reaches altitude 10° 06:49:47 10° 228° (SW) 2,550 6.0 -7.9°
Maximum altitude 06:55:05 35° 294° (WNW) 1,413 4.4 -7.1°
Drops below altitude 10° 07:00:30 10° 359° (N) 2,608 6.0 -6.4°
Sets 07:03:14 0° 8° (N) 3,561 6.7 -6.0°
